[Date Prev][Date Next][Thread Prev][Thread Next] - [Date Index][Thread Index][Author Index]

2 Line ISS Keps 10-17



ISS
1 25544U 98067A   04291.33013749  .00025288  00000-0  21690-3 0  9341
2 25544  51.6366  62.5072 0009006 237.0610 224.0778 15.69182039337507
----
Via the sarex mailing list at AMSAT.ORG courtesy of AMSAT-NA.
To unsubscribe, send "unsubscribe sarex" to Majordomo@amsat.org



AMSAT Top AMSAT Home